Overview Statistics Trail Chart Weather Telemetry Raw packets
 

This is the latest recevied weather packets stored in our database for station/object KN6DHD. If no packets are shown the sender has not sent any weather packets the latest 10 day(s).

<< 25 26 27 28 29 30 31 >>
Time Temp. Humidity Pressure Rain* Wind** Luminosity Snow
1777577343 25° C 51% 1014 hPa 0 mm - 676 W/m² -
1777577038 25° C 51% 1013.9 hPa 0 mm - 681 W/m² -
1777576736 24.44° C 50% 1014.2 hPa 0 mm - 673 W/m² -
1777576434 24.44° C 51% 1014.1 hPa 0 mm - 654 W/m² -
1777576132 23.89° C 52% 1014.2 hPa 0 mm - 644 W/m² -
1777575826 23.89° C 53% 1014.2 hPa 0 mm - 637 W/m² -
1777575523 23.33° C 53% 1014.3 hPa 0 mm - 629 W/m² -
1777575219 23.33° C 55% 1014.4 hPa 0 mm - 632 W/m² -
1777574915 22.78° C 56% 1014.4 hPa 0 mm - 646 W/m² -
1777574612 22.78° C 57% 1014.4 hPa 0 mm - 636 W/m² -
1777574309 22.78° C 56% 1014.7 hPa 0 mm - 117 W/m² -
1777574004 22.22° C 56% 1014.6 hPa 0 mm - 54 W/m² -
1777573704 22.22° C 57% 1014.5 hPa 0 mm - 53 W/m² -
1777573401 21.67° C 58% 1014.6 hPa 0 mm - 52 W/m² -
1777573097 21.67° C 60% 1014.7 hPa 0 mm - 52 W/m² -
1777572794 21.11° C 59% 1014.7 hPa 0 mm - 50 W/m² -
1777572489 21.11° C 60% 1014.7 hPa 0 mm - 55 W/m² -
1777572184 21.11° C 61% 1014.8 hPa 0 mm - 53 W/m² -
1777571880 20° C 64% 1015 hPa 0 mm - 51 W/m² -
1777571575 20° C 66% 1014.7 hPa 0 mm - 49 W/m² -
1777571273 20° C 66% 1014.6 hPa 0 mm - 49 W/m² -
1777570969 19.44° C 66% 1014.8 hPa 0 mm - 48 W/m² -
1777570362 18.89° C 68% 1015.2 hPa 0 mm - 50 W/m² -
1777570057 18.89° C 68% 1015.2 hPa 0 mm - 51 W/m² -
1777569753 18.33° C 70% 1015.2 hPa 0 mm - 145 W/m² -

* Rain latest hour (hover to see other rain measurements)
** Current wind speed in m/s (hover to see current wind gust speed)